LUCH 5A (SDCM/PRN 140)

Last updated on Jan. 23, 2021, 7:32 a.m. UTC

1 37951U 11074B   21022.88222413 -.00000035  00000-0  00000-0 0  9994
2 37951   3.7707 108.8776 0002105 229.5547 268.7477  1.00275621 33427
UTC
Height (km)
Latitude
Longitude
Inclination
Orbital Period
UTC large
Height (km)
Speed (km/s)
/
Latitude / Longitude
Inclination (degrees)
Orbital Period (minutes)
Azimuth
Elevation
Range (km)
Doppler Factor
iOS Compass Heading
iOS Angle

Next 30 passes for location: Hong Kong

Rise time Rise Azimuth (degrees) Set time Set Azimuth (degrees) Duration Max altitude (degrees)

No matching passes for this satellites